[[{"header":{"parameterUnit":"m.s-1","parameterCategory":1,"la1":30.2991,"la2":30.254,"lo1":-89.0895,"lo2":-89.0444,"dy":0.0017,"dx":0.0017,"nx":28,"ny":28,"refTime":"2025-11-30T09:00:00:Z","depth":0,"parameterNumber":2,"parameterNumberName":"U-component_of_WINDS"},"data":[0,0,0,0,0,0,0,0,0,0,0,0,0,0,0,0,0,0,0,0,0,0,0,0,0,0,0,0,0,0,0,0,0,0,0,0,0,0,0,0,0,0,0,0,0,0,0,0,0,0,0,0,0,0,0,0,0,0,-3.3707,-3.3708,0,-3.3767,-3.3767,-3.3768,-3.3699,-3.3697,-3.3694,-3.3692,-3.3753,-3.3757,-3.3761,0,0,0,0,0,0,0,0,0,0,0,0,0,-3.3533,-3.3537,-3.3707,-3.3708,-3.3708,-3.3767,-3.3767,-3.3768,-3.37,-3.3697,-3.3693,-3.3691,-3.3752,-3.3756,-3.3761,0,0,0,0,0,0,0,0,0,0,0,0,0,-3.3602,-3.3538,-3.3707,-3.3681,-3.368,-3.3767,-3.3768,-3.3769,-3.37,-3.3697,-3.3693,-3.3689,-3.375,-3.3756,-3.3762,-3.3877,0,0,-3.378,-3.3783,0,0,0,0,0,0,0,0,-3.3598,-3.3609,-3.3684,-3.3683,-3.3681,-3.3722,-3.3728,-3.3805,-3.3701,-3.3693,-3.3692,-3.3687,-3.3746,-3.3752,-3.3771,-3.388,-3.3882,-3.3781,-3.3784,-3.3787,-3.3789,0,0,0,0,0,0,0,-3.3594,-3.3606,-3.3731,-3.3685,-3.3684,-3.3667,-3.3672,-3.3743,-3.374,-3.3693,-3.3688,-3.3696,-3.3744,-3.3766,-3.3772,-3.3883,-3.3781,-3.3786,-3.379,-3.3792,-3.4089,-3.4093,0,0,0,0,0,0,-3.3592,-3.3602,-3.3729,-3.3732,-3.363,-3.3673,-3.3679,-3.3713,-3.3739,-3.3739,-3.3699,-3.3693,-3.3757,-3.3765,-3.3774,-3.3911,-3.3787,-3.3793,-3.3796,-3.4085,-3.409,-3.4094,0,0,0,0,0,0,-3.3588,-3.3604,-3.3726,-3.3666,-3.368,-3.368,-3.3718,-3.3716,-3.3738,-3.3744,-3.3743,-3.3722,-3.3755,-3.3766,-3.3852,-3.3912,-3.3795,-3.3801,-3.408,-3.4086,-3.4092,-3.4186,0,0,0,0,0,0,-3.3584,-3.3603,-3.3647,-3.3668,-3.3684,-3.3803,-3.3722,-3.372,-3.3748,-3.374,-3.3765,-3.3766,-3.3752,-3.3843,-3.3858,-3.3919,-3.3806,-3.4074,-3.4082,-3.409,-3.4177,-3.4195,-3.4209,0,0,0,0,0,-3.3578,-3.3671,-3.3649,-3.3665,-3.3739,-3.3807,-3.3816,-3.3799,-3.3753,-3.3797,-3.3801,-3.3765,-3.3903,-3.3853,-3.3869,-3.3932,-3.407,-3.408,-3.4089,-3.417,-3.4191,-3.4209,0,0,0,0,0,0,-3.3657,-3.3673,-3.365,-3.3752,-3.3779,-3.3795,-3.385,-3.3822,-3.3862,-3.3853,-3.383,-3.3836,-3.3928,-3.3938,-3.3882,-3.4045,-3.3979,-3.3992,-3.4035,-3.4055,-3.4071,-3.4067,-3.3811,0,0,0,0,0,-3.3687,-3.3741,-3.3752,-3.3841,-3.3855,-3.3851,-3.388,-3.3865,-3.3891,-3.3902,-3.3912,-3.394,-3.3989,-3.4022,-3.4068,-3.4178,-3.4183,-3.4229,-3.4245,-3.4258,-3.4271,-3.433,-3.4351,-3.4126,-3.4126,-3.4125,0,0,-3.3748,-3.3763,-3.3799,-3.3857,-3.3876,-3.3933,-3.3861,-3.3924,-3.3966,-3.3912,-3.3994,-3.4003,-3.4031,-3.413,-3.4174,-3.4141,-3.4334,-3.4271,-3.4281,-3.4286,-3.4342,-3.4363,-3.4382,-3.4132,-3.4131,-3.413,0,0,-3.3889,-3.3906,-3.3983,-3.4003,-3.4032,-3.4029,-3.4047,-3.4068,-3.4072,-3.4154,-3.4115,-3.4164,-3.4249,-3.4272,-3.4294,-3.4444,-3.4412,-3.4459,-3.4544,-3.4602,-3.462,-3.4635,-3.4689,-3.4709,-3.4471,-3.4471,-3.4471,0,-3.3962,-3.4046,-3.4026,-3.4092,-3.4119,-3.4072,-3.415,-3.417,-3.4213,-3.4233,-3.4196,-3.4303,-3.4319,-3.4422,-3.4459,-3.4478,-3.4499,-3.4457,-3.4619,-3.4634,-3.4648,-3.47,-3.472,-3.4477,-3.4476,-3.4476,-3.4475,0,-3.4135,-3.4194,-3.4252,-3.4295,-3.4328,-3.44,-3.439,-3.4426,-3.4408,-3.4408,-3.4492,-3.451,-3.4559,-3.4582,-3.4564,-3.4683,-3.4662,-3.4622,-3.4556,-3.4676,-3.4724,-3.4743,-3.4485,-3.4483,-3.4481,-3.448,0,0,-3.4329,-3.4359,-3.4381,-3.44,-3.4429,-3.4475,-3.4544,-3.4592,-3.4624,-3.4654,-3.4712,-3.4786,-3.4749,-3.4775,-3.4759,-3.481,-3.4928,-3.4764,-3.4764,-3.4795,-3.5061,-3.5092,-3.5115,-3.4906,-3.491,-3.4913,-3.5059,0,-3.4471,-3.4592,-3.4575,-3.4691,-3.4746,-3.4702,-3.4762,-3.4787,-3.4788,-3.4835,-3.4836,-3.4889,-3.4836,-3.4852,-3.49,-3.4904,-3.4982,-3.4893,-3.4961,-3.4963,-3.4956,-3.514,-3.5173,-3.531,-3.5078,-3.5081,-3.5083,0,-3.4654,-3.4692,-3.4814,-3.4835,-3.4857,-3.4912,-3.4954,-3.4999,-3.5025,-3.5023,-3.5052,-3.5027,-3.5096,-3.5028,-3.5123,-3.5063,-3.509,-3.5096,-3.5101,-3.5107,-3.5032,-3.5153,-3.5353,-3.5374,-3.5112,-3.511,-3.5108,0,-3.4785,-3.4867,-3.495,-3.4968,-3.4994,-3.5033,-3.5046,-3.5068,-3.5098,-3.5135,-3.5154,-3.5199,-3.5224,-3.5259,-3.5246,-3.5198,-3.5345,-3.5275,-3.5345,-3.5346,-3.5379,-3.5378,-3.5588,-3.5395,-3.5394,-3.5394,-3.5393,0,-3.4947,-3.5024,-3.5009,-3.5061,-3.5145,-3.5125,-3.5209,-3.5216,-3.5236,-3.5288,-3.5252,-3.5302,-3.5282,-3.533,-3.5321,-3.5402,-3.5413,-3.5413,-3.541,-3.5418,-3.5418,-3.5436,-3.5426,-3.5399,-3.5398,-3.5397,-3.5396,0,-3.5109,-3.5102,-3.519,-3.5207,-3.5213,-3.5275,-3.529,-3.5338,-3.5336,-3.5403,-3.5417,-3.5415,-3.547,-3.5461,-3.5521,-3.5515,-3.5617,-3.5601,-3.5608,-3.5605,-3.5676,-3.567,-3.5906,-3.5937,-3.5722,-3.5724,-3.5726,0,-3.5213,-3.5271,-3.5294,-3.5327,-3.5343,-3.5395,-3.5425,-3.5407,-3.544,-3.5475,-3.5519,-3.5571,-3.5611,-3.5701,-3.5705,-3.5751,-3.5737,-3.5817,-3.5744,-3.575,-3.574,-3.5737,-3.5743,-3.5832,-3.5834,-3.5836,-3.5838,0,-3.54,-3.5394,-3.5439,-3.5484,-3.5521,-3.5555,-3.5586,-3.5614,-3.5598,-3.5637,-3.5693,-3.5725,-3.5787,-3.5839,-3.5882,-3.5894,-3.5864,-3.586,-3.5879,-3.5888,-3.589,-3.5891,-3.5649,-3.5855,-3.5854,-3.5852,-3.5851,-3.5851,-3.5537,-3.5586,-3.5611,-3.5663,-3.5684,-3.5713,-3.5759,-3.5764,-3.581,-3.5859,-3.5845,-3.5909,-3.5934,-3.5988,-3.6006,-3.6055,-3.6026,-3.6053,-3.606,-3.6067,-3.6076,-3.5881,-3.6063,-3.6062,-3.6062,-3.6061,-3.6061,0,-3.5723,-3.5736,-3.5784,-3.5828,-3.5869,-3.5836,-3.5868,-3.5904,-3.5961,-3.5986,-3.6027,-3.6091,-3.6141,-3.6149,-3.6196,-3.6234,-3.6222,-3.6247,-3.6245,-3.6249,-3.6099,-3.6079,-3.6257,-3.6257,-3.6257,-3.6257,-3.6257,-3.6257,-3.5824,-3.5907,-3.5904,-3.5996,-3.6008,-3.6071,-3.6092,-3.6119,-3.6139,-3.6213,-3.6254,-3.6259,-3.6277,-3.6325,-3.637,-3.6371,-3.639,-3.6422,-3.6418,-3.6279,-3.6259,-3.624,-3.6221,-3.6426,-3.6427,-3.6563,-3.6564,-3.6565]},{"header":{"parameterUnit":"m.s-1","parameterCategory":1,"la1":30.2991,"la2":30.254,"lo1":-89.0895,"lo2":-89.0444,"dy":0.0017,"dx":0.0017,"nx":28,"ny":28,"refTime":"2025-11-30T09:00:00:Z","depth":0,"parameterNumber":3,"parameterNumberName":"V-component_of_WINDS"},"data":[0,0,0,0,0,0,0,0,0,0,0,0,0,0,0,0,0,0,0,0,0,0,0,0,0,0,0,0,0,0,0,0,0,0,0,0,0,0,0,0,0,0,0,0,0,0,0,0,0,0,0,0,0,0,0,0,0,0,-6.7953,-6.7954,0,-6.8018,-6.8019,-6.8019,-6.7946,-6.7943,-6.794,-6.7938,-6.7998,-6.8002,-6.8007,0,0,0,0,0,0,0,0,0,0,0,0,0,-6.776,-6.7764,-6.7953,-6.7954,-6.7955,-6.8018,-6.8019,-6.8019,-6.7946,-6.7943,-6.794,-6.7937,-6.7997,-6.8002,-6.8007,0,0,0,0,0,0,0,0,0,0,0,0,0,-6.7836,-6.7765,-6.7953,-6.7926,-6.7924,-6.8018,-6.8019,-6.802,-6.7947,-6.7943,-6.7939,-6.7935,-6.7995,-6.8001,-6.8008,-6.8129,0,0,-6.8027,-6.8029,0,0,0,0,0,0,0,0,-6.7832,-6.7843,-6.7929,-6.7928,-6.7926,-6.797,-6.7972,-6.8056,-6.7948,-6.7938,-6.7938,-6.7933,-6.7992,-6.7998,-6.8019,-6.8132,-6.8134,-6.8027,-6.8031,-6.8034,-6.8035,0,0,0,0,0,0,0,-6.7827,-6.784,-6.7978,-6.7931,-6.7929,-6.7909,-6.7915,-6.7988,-6.7987,-6.7939,-6.7934,-6.7943,-6.799,-6.8013,-6.802,-6.8135,-6.8027,-6.8033,-6.8037,-6.8039,-6.8349,-6.8353,0,0,0,0,0,0,-6.7825,-6.7836,-6.7976,-6.798,-6.7868,-6.7915,-6.7922,-6.796,-6.7986,-6.7986,-6.7946,-6.7939,-6.8005,-6.8013,-6.8022,-6.8165,-6.8034,-6.804,-6.8043,-6.8344,-6.835,-6.8354,0,0,0,0,0,0,-6.7821,-6.7839,-6.7974,-6.7907,-6.7923,-6.7923,-6.7966,-6.7963,-6.7986,-6.7992,-6.7991,-6.797,-6.8002,-6.8013,-6.8103,-6.8166,-6.8042,-6.8048,-6.8339,-6.8346,-6.8352,-6.8452,0,0,0,0,0,0,-6.7816,-6.7838,-6.7885,-6.7909,-6.7927,-6.8056,-6.797,-6.7968,-6.7998,-6.7989,-6.8014,-6.8014,-6.7999,-6.8094,-6.8109,-6.8172,-6.8053,-6.8333,-6.8342,-6.835,-6.8443,-6.8461,-6.8477,0,0,0,0,0,-6.781,-6.791,-6.7888,-6.7905,-6.7987,-6.806,-6.807,-6.8052,-6.8003,-6.805,-6.8053,-6.8013,-6.8157,-6.8104,-6.812,-6.8186,-6.8329,-6.8339,-6.8349,-6.8436,-6.8458,-6.8477,0,0,0,0,0,0,-6.7892,-6.7912,-6.7889,-6.8,-6.8029,-6.8047,-6.8106,-6.8076,-6.8118,-6.8108,-6.8083,-6.8089,-6.8184,-6.8194,-6.8135,-6.8304,-6.8234,-6.8248,-6.8294,-6.8316,-6.8332,-6.8328,-6.8058,0,0,0,0,0,-6.7923,-6.7983,-6.7997,-6.8094,-6.811,-6.8106,-6.8137,-6.8121,-6.8149,-6.8161,-6.817,-6.8198,-6.8248,-6.8282,-6.833,-6.8444,-6.8448,-6.8497,-6.8514,-6.8528,-6.854,-6.86,-6.8622,-6.8387,-6.8387,-6.8387,0,0,-6.7988,-6.8007,-6.8046,-6.8111,-6.8131,-6.8192,-6.8116,-6.8184,-6.8228,-6.817,-6.8256,-6.8264,-6.8293,-6.8395,-6.8441,-6.8406,-6.8606,-6.8541,-6.8552,-6.8557,-6.8613,-6.8635,-6.8655,-6.8394,-6.8393,-6.8392,0,0,-6.8137,-6.8158,-6.8241,-6.8264,-6.8296,-6.8293,-6.8313,-6.8336,-6.834,-6.8426,-6.8383,-6.8434,-6.8523,-6.8545,-6.8568,-6.8725,-6.8689,-6.8741,-6.8829,-6.8888,-6.8906,-6.8923,-6.8978,-6.8998,-6.8753,-6.8753,-6.8753,0,-6.8213,-6.8306,-6.8287,-6.8358,-6.8387,-6.8339,-6.8421,-6.8443,-6.8489,-6.8509,-6.847,-6.858,-6.8595,-6.8702,-6.8741,-6.8761,-6.8781,-6.8738,-6.8906,-6.8922,-6.8936,-6.8989,-6.901,-6.8759,-6.8758,-6.8758,-6.8757,0,-6.8397,-6.8461,-6.8523,-6.8571,-6.8607,-6.8683,-6.8674,-6.8712,-6.8693,-6.8693,-6.878,-6.8797,-6.8847,-6.8871,-6.8852,-6.8975,-6.8952,-6.891,-6.8839,-6.8965,-6.9014,-6.9034,-6.8768,-6.8765,-6.8764,-6.8762,0,0,-6.86,-6.8637,-6.866,-6.8681,-6.8713,-6.8761,-6.8834,-6.8884,-6.8917,-6.895,-6.9009,-6.9085,-6.9047,-6.9072,-6.9055,-6.9107,-6.9229,-6.9058,-6.9058,-6.9089,-6.9364,-6.9396,-6.942,-6.9206,-6.921,-6.9213,-6.9362,0,-6.875,-6.8879,-6.8864,-6.8986,-6.9045,-6.8999,-6.9063,-6.9088,-6.909,-6.9138,-6.9138,-6.9193,-6.9137,-6.9153,-6.9202,-6.9204,-6.9284,-6.9193,-6.9259,-6.9262,-6.9254,-6.9445,-6.9479,-6.9619,-6.9381,-6.9384,-6.9386,0,-6.8942,-6.8984,-6.9113,-6.9136,-6.916,-6.9218,-6.9262,-6.9309,-6.9336,-6.9333,-6.9362,-6.9336,-6.9407,-6.9335,-6.9432,-6.937,-6.9396,-6.9401,-6.9406,-6.9411,-6.9332,-6.9455,-6.9663,-6.9684,-6.9416,-6.9414,-6.9412,0,-6.9077,-6.9165,-6.9254,-6.9273,-6.9302,-6.9343,-6.9357,-6.938,-6.9411,-6.9449,-6.9468,-6.9514,-6.9538,-6.9573,-6.9558,-6.9508,-6.9657,-6.9585,-6.9656,-6.9656,-6.9689,-6.9687,-6.9904,-6.9707,-6.9706,-6.9706,-6.9705,0,-6.9246,-6.9326,-6.9315,-6.9369,-6.9457,-6.9438,-6.9525,-6.9532,-6.9554,-6.9607,-6.957,-6.962,-6.9598,-6.9646,-6.9635,-6.9716,-6.9728,-6.9726,-6.9722,-6.973,-6.973,-6.9746,-6.9736,-6.9711,-6.971,-6.9709,-6.9708,0,-6.9412,-6.9407,-6.9501,-6.9521,-6.9528,-6.9592,-6.9608,-6.9658,-6.9656,-6.9724,-6.9739,-6.9736,-6.9791,-6.978,-6.984,-6.9833,-6.9934,-6.9918,-6.9926,-6.9922,-6.9993,-6.9987,-7.0228,-7.0258,-7.0042,-7.0044,-7.0045,0,-6.952,-6.9581,-6.9608,-6.9642,-6.966,-6.9715,-6.9746,-6.9729,-6.9763,-6.9798,-6.9843,-6.9895,-6.9936,-7.0026,-7.0028,-7.0073,-7.0057,-7.0139,-7.0064,-7.0069,-7.0058,-7.0055,-7.006,-7.0154,-7.0156,-7.0158,-7.016,0,-6.9712,-6.9706,-6.9755,-6.9803,-6.9842,-6.9878,-6.991,-6.994,-6.9924,-6.9964,-7.0021,-7.0053,-7.0115,-7.0166,-7.0208,-7.0219,-7.0187,-7.0183,-7.0202,-7.021,-7.0212,-7.0211,-6.9966,-7.0178,-7.0176,-7.0175,-7.0174,-7.0173,-6.9851,-6.9904,-6.9931,-6.9986,-7.0008,-7.0039,-7.0087,-7.0092,-7.014,-7.019,-7.0176,-7.024,-7.0264,-7.0317,-7.0334,-7.0382,-7.0351,-7.0379,-7.0386,-7.0393,-7.0401,-7.0205,-7.039,-7.0389,-7.0389,-7.0388,-7.0388,0,-7.0041,-7.0057,-7.0107,-7.0154,-7.0197,-7.0164,-7.0198,-7.0235,-7.0293,-7.0319,-7.036,-7.0424,-7.0474,-7.048,-7.0526,-7.0564,-7.055,-7.0577,-7.0573,-7.0576,-7.0426,-7.0405,-7.0587,-7.0587,-7.0587,-7.0587,-7.0587,-7.0587,-7.0145,-7.0231,-7.0229,-7.0325,-7.0339,-7.0403,-7.0425,-7.0453,-7.0473,-7.0548,-7.059,-7.0594,-7.0611,-7.0658,-7.0702,-7.0702,-7.072,-7.0753,-7.0747,-7.0607,-7.0587,-7.0568,-7.0548,-7.0757,-7.0757,-7.0893,-7.0895,-7.0896]}]]